Wetbulb
63.37 65.73 69.38 70.09 70.12 70.04 70.43 70.22 70.47 70.77 71.02 70.95 70.95 70.71 70.77 70.85 70.87 71.26 71.54 71.67 71.63 71.26 71.01 70.05 69.71 69.44 69.54 69.62 69.64 69.90 70.22 70.42 70.24 70.97 70.60 70.99 70.45 70.62 70.49 70.40 69.89 68.84 70.21
63.85 65.80 68.58 69.24 69.48 69.90 69.72 70.01 70.20 70.19 69.80 70.02 70.65 70.79 70.85 70.93 70.98 71.01 71.18 71.15 70.92 71.07 71.29 70.80 69.81 69.39 69.30 69.23 69.22 69.22 69.21 69.52 69.63 70.39 70.66 69.54 69.15 69.45 69.76 69.71 69.62 68.57 69.61
63.82 65.32 66.44 68.44 68.57 68.88 68.99 69.30 69.34 69.14 68.95 69.16 69.45 70.07 70.57 70.75 70.90 70.95 70.83 70.71 70.50 70.72 71.14 70.84 69.81 69.32 69.03 68.83 69.10 69.01 68.88 69.06 68.99 69.28 69.52 67.84 68.00 69.03 68.77 69.06 69.01 69.05 68.88
64.96 64.95 64.72 67.33 67.62 67.06 67.37 67.46 68.37 68.62 68.39 68.74 69.04 69.03 69.29 69.97 70.20 70.21 70.04 70.25 70.22 70.21 70.72 70.38 69.81 69.01 68.68 68.32 68.83 68.81 68.64 68.54 68.72 68.58 66.65 66.57 68.02 70.15 69.98 69.36 69.00 68.59 68.59
64.93 65.07 65.31 67.26 67.33 67.46 67.92 67.87 68.06 68.16 68.00 68.07 68.61 69.00 68.57 68.50 68.98 69.19 69.13 69.22 69.36 69.72 69.72 70.04 69.59 68.63 68.21 68.08 68.10 68.42 68.53 68.67 68.21 67.65 65.16 64.81 65.40 69.55 70.44 69.98 69.47 69.33 68.76
65.80 65.49 66.34 67.47 67.98 67.85 67.41 67.17 66.99 66.82 66.36 67.45 68.63 68.74 69.38 68.00 67.81 68.13 68.14 68.17 68.12 68.23 68.55 68.59 68.34 68.34 68.43 67.88 68.21 68.15 67.83 67.64 65.80 63.28 63.32 65.84 65.47 69.24 69.21 68.48 68.76 68.73 68.71
65.28 65.96 66.36 66.79 67.64 67.74 66.74 65.52 65.19 65.28 65.35 65.97 67.01 67.77 68.57 68.22 68.23 68.28 68.72 69.00 68.87 68.15 67.90 67.96 67.73 67.93 67.51 67.32 67.48 67.08 66.77 66.89 64.35 63.98 63.99 64.78 65.18 69.12 68.63 67.95 68.11 68.17 67.66
64.45 63.65 64.27 66.53 66.94 66.82 66.07 63.95 63.51 63.12 63.21 63.69 64.67 65.56 66.90 68.68 68.97 68.83 68.97 68.71 69.01 68.71 68.67 68.29 68.37 68.08 67.48 67.10 66.86 66.01 65.51 66.20 64.88 64.11 64.36 63.97 66.40 68.56 68.22 67.71 67.44 67.49 67.32
55.54 55.86 56.68 57.21 63.19 63.48 65.46 63.78 62.36 61.88 61.45 62.04 62.31 63.23 64.10 65.74 67.08 66.71 67.22 67.91 67.60 67.65 67.60 67.82 67.97 67.43 67.41 67.11 66.71 66.09 65.29 65.57 63.34 64.08 65.77 64.74 67.75 68.65 67.89 67.29 67.28 66.94 66.80
52.44 52.73 53.08 53.46 55.68 57.01 57.03 61.77 60.95 60.57 59.59 59.55 59.95 60.45 61.29 61.40 64.11 64.51 63.61 64.10 64.65 65.08 66.08 66.69 66.66 66.57 66.59 66.29 65.94 65.71 64.87 64.84 61.68 61.34 64.32 64.05 67.84 69.06 68.35 67.30 66.50 66.44 66.18
52.08 50.36 50.99 51.30 51.93 52.87 53.70 56.11 56.02 57.71 57.41 57.04 56.23 57.67 55.66 56.35 57.75 58.79 60.13 60.32 60.51 61.03 61.69 62.75 63.03 64.05 65.27 65.18 65.74 65.57 63.76 61.08 60.78 61.41 63.34 65.63 68.11 69.41 68.96 67.87 67.03 66.22 65.59
48.64 49.51 49.37 49.71 49.79 51.12 54.12 51.04 50.99 52.45 51.54 51.72 51.61 51.59 52.25 52.36 53.95 54.95 56.14 57.12 56.93 57.04 57.35 58.03 58.61 59.71 61.24 63.26 62.63 63.50 62.91 62.59 62.41 61.73 62.85 65.33 67.81 69.22 69.22 68.24 67.57 66.92 66.15
46.52 48.10 49.10 49.12 48.79 49.24 50.58 50.20 49.93 49.91 50.04 50.75 50.91 49.88 49.56 51.03 50.31 50.28 50.85 50.84 51.12 53.33 50.60 51.73 52.49 53.16 54.89 56.89 57.28 58.14 61.40 63.90 63.87 65.06 64.62 65.18 67.85 68.98 69.15 68.64 67.83 67.20 66.83
46.44 46.73 48.12 48.09 48.49 47.47 48.37 49.20 49.85 49.85 49.15 49.56 49.39 49.66 48.65 49.32 48.32 47.07 48.30 48.17 48.13 47.62 47.39 48.22 49.16 50.44 51.50 52.89 54.69 54.18 57.41 61.94 62.60 64.10 63.61 64.46 66.25 67.86 69.22 69.28 68.65 67.88 67.46
46.06 45.86 46.39 47.97 47.18 47.42 47.42 47.54 47.79 47.70 47.72 47.84 48.33 49.41 48.69 47.73 47.78 46.74 46.75 47.15 46.27 46.08 46.34 46.25 46.87 47.97 48.47 49.61 51.11 51.48 53.32 55.47 58.17 60.91 64.22 63.64 64.16 66.10 67.42 68.68 68.88 69.61 68.54
45.90 46.01 46.84 46.89 46.88 47.00 46.30 46.76 46.34 46.35 46.34 46.51 46.88 47.95 48.76 47.26 47.16 46.63 46.11 46.65 46.33 45.45 45.22 44.46 44.61 45.79 46.15 46.91 47.72 49.32 50.79 52.63 54.11 58.26 62.44 63.12 63.03 63.63 65.06 66.65 67.59 67.98 68.74
45.88 46.38 47.14 48.04 47.09 46.90 46.18 46.83 46.65 46.49 46.63 45.88 46.04 46.97 48.12 47.29 46.35 46.39 46.01 45.87 45.39 45.49 44.91 44.71 44.92 45.22 45.01 45.90 46.09 49.38 52.32 52.00 55.80 57.94 59.56 61.34 62.40 62.29 62.68 63.79 65.51 66.27 66.65
44.25 45.51 45.65 48.23 44.95 46.35 46.19 46.50 46.79 46.06 45.62 45.77 45.98 45.98 47.78 48.12 46.71 46.02 45.97 46.07 45.61 45.44 46.28 44.53 44.33 43.51 43.88 43.83 44.46 47.11 49.48 54.28 52.28 52.73 55.06 56.80 57.74 57.51 57.90 61.44 62.72 64.40 64.51
44.52 44.39 44.34 44.71 44.87 45.79 46.21 46.41 46.30 46.09 45.55 45.19 45.98 46.00 46.60 48.10 47.91 45.75 45.78 46.05 46.11 45.30 45.78 44.44 43.76 42.43 43.51 43.33 45.10 45.95 47.30 47.85 51.79 51.01 49.03 50.12 52.10 52.51 52.94 54.35 56.68 61.69 63.41
44.05 44.42 44.31 44.99 44.65 44.21 44.48 44.06 44.57 45.01 45.18 45.27 44.83 46.42 47.13 46.73 47.71 46.01 45.71 45.91 46.43 45.19 44.80 44.54 43.19 44.37 42.19 43.10 44.56 45.32 46.15 45.17 49.28 48.43 47.96 47.82 48.35 49.30 49.09 49.14 50.78 59.95 60.38
43.33 43.91 44.12 45.04 44.63 44.25 43.25 42.15 41.77 42.12 43.14 44.23 44.89 45.88 46.86 46.73 46.90 46.08 46.00 45.82 46.01 45.20 44.52 45.09 43.49 43.48 42.76 43.47 40.34 41.37 45.89 47.27 44.56 47.42 47.94 45.81 45.83 47.29 47.29 47.27 47.50 59.62 60.90
44.05 43.67 43.36 44.24 44.53 44.78 43.89 43.49 42.60 42.62 43.57 44.37 45.42 45.83 45.97 46.28 46.53 47.35 45.89 45.69 45.78 45.41 45.02 44.49 43.82 43.46 42.73 42.63 40.28 38.94 37.52 41.07 43.08 44.19 43.71 44.22 43.92 45.01 46.05 47.54 46.94 51.29 58.19
42.13 43.23 43.97 44.28 44.85 45.15 45.40 44.35 44.31 44.53 44.66 44.82 44.79 45.11 46.61 46.70 46.65 46.48 46.34 46.01 45.48 45.70 44.49 44.01 44.73 43.67 42.19 42.45 42.17 39.62 36.05 34.14 38.32 40.86 42.34 42.21 42.75 42.94 43.39 44.67 45.88 48.69 56.43
42.36 43.28 43.84 44.71 45.03 45.87 45.47 44.55 43.58 42.55 42.04 43.14 44.08 45.64 47.30 48.38 48.17 48.39 47.57 46.97 46.37 46.19 45.85 45.38 46.82 44.57 45.09 43.00 42.81 43.98 41.53 40.37 36.53 36.90 40.06 41.05 42.11 43.07 41.93 42.54 43.61 45.73 54.01
42.59 43.03 43.46 44.42 45.25 45.86 45.17 44.94 43.71 42.66 43.57 44.74 45.72 46.03 46.61 46.77 46.11 46.78 46.25 45.38 45.02 45.45 44.75 45.23 44.39 45.59 45.58 43.54 43.64 44.61 43.39 41.69 39.45 37.73 38.39 40.74 41.27 42.01 42.18 42.24 42.71 44.41 47.28
42.18 42.64 43.13 44.07 45.27 45.50 45.18 44.83 44.39 44.54 44.62 44.36 44.07 43.82 44.41 45.26 43.27 43.37 43.16 42.24 42.42 42.31 41.81 42.64 41.79 42.47 43.49 43.79 43.89 44.26 43.31 42.66 43.05 42.58 40.71 41.59 40.05 41.65 41.38 42.61 42.31 42.70 43.74
MSLP
1024.11 1023.71 1022.98 1022.48 1022.20 1021.97 1021.64 1021.44 1021.19 1020.85 1020.55 1020.40 1020.30 1020.22 1020.11 1019.98 1019.79 1019.69 1019.57 1019.43 1019.21 1018.98 1018.97 1018.96 1018.95 1018.88 1018.77 1018.67 1018.64 1018.64 1018.65 1018.60 1018.60 1018.45 1018.27 1018.14 1018.15 1018.17 1018.13 1018.17 1018.16 1018.18 1018.15
1024.24 1023.90 1023.30 1022.77 1022.48 1022.16 1021.91 1021.66 1021.40 1021.15 1020.89 1020.73 1020.64 1020.46 1020.32 1020.20 1020.12 1020.00 1019.77 1019.57 1019.46 1019.19 1019.09 1019.20 1019.20 1019.13 1019.06 1019.02 1018.94 1018.89 1018.81 1018.74 1018.74 1018.70 1018.62 1018.44 1018.37 1018.40 1018.40 1018.41 1018.48 1018.50 1018.44
1024.33 1024.01 1023.55 1023.09 1022.73 1022.43 1022.18 1021.95 1021.64 1021.38 1021.15 1021.03 1020.90 1020.76 1020.64 1020.49 1020.40 1020.24 1020.06 1019.91 1019.69 1019.41 1019.25 1019.24 1019.28 1019.30 1019.34 1019.29 1019.23 1019.08 1018.93 1018.81 1018.74 1018.75 1018.71 1018.73 1018.67 1018.55 1018.55 1018.68 1018.73 1018.75 1018.77
1024.33 1024.13 1023.81 1023.38 1023.01 1022.78 1022.48 1022.28 1022.09 1021.86 1021.67 1021.54 1021.36 1021.13 1020.94 1020.79 1020.70 1020.60 1020.44 1020.32 1020.06 1019.81 1019.57 1019.51 1019.43 1019.43 1019.44 1019.45 1019.43 1019.21 1019.03 1018.79 1018.64 1018.55 1018.78 1018.91 1018.84 1018.77 1018.70 1018.81 1018.94 1019.03 1019.03
1024.59 1024.39 1024.19 1023.81 1023.47 1023.25 1022.95 1022.72 1022.45 1022.22 1022.02 1021.88 1021.71 1021.45 1021.34 1021.18 1021.10 1021.03 1020.90 1020.76 1020.51 1020.29 1020.00 1019.86 1019.84 1019.71 1019.62 1019.57 1019.55 1019.35 1019.07 1018.70 1018.45 1018.47 1018.78 1018.98 1019.04 1019.00 1018.86 1018.91 1018.99 1019.10 1019.13
1024.68 1024.66 1024.46 1024.17 1023.91 1023.57 1023.24 1023.06 1022.88 1022.61 1022.42 1022.20 1021.94 1021.67 1021.43 1021.48 1021.39 1021.30 1021.25 1021.05 1020.85 1020.67 1020.48 1020.24 1020.12 1020.08 1020.03 1019.94 1019.85 1019.53 1019.18 1018.89 1018.78 1018.88 1018.95 1019.00 1019.16 1019.14 1019.10 1019.04 1019.03 1019.19 1019.24
1024.87 1024.77 1024.64 1024.45 1024.24 1024.00 1023.73 1023.44 1023.29 1023.02 1022.77 1022.54 1022.28 1021.95 1021.63 1021.48 1021.44 1021.32 1021.12 1021.03 1020.90 1020.85 1020.67 1020.44 1020.23 1020.03 1019.94 1019.93 1020.09 1019.91 1019.62 1019.30 1019.09 1019.14 1019.16 1019.12 1019.20 1019.18 1019.31 1019.35 1019.15 1019.07 1019.27
1025.07 1025.03 1024.79 1024.64 1024.54 1024.44 1024.37 1024.21 1023.81 1023.44 1023.34 1023.06 1022.75 1022.44 1022.08 1021.94 1021.82 1021.64 1021.43 1021.28 1021.08 1020.90 1020.66 1020.42 1020.15 1019.93 1019.78 1019.59 1019.66 1019.93 1019.77 1019.71 1019.46 1019.26 1019.12 1019.36 1019.33 1019.20 1019.33 1019.51 1019.59 1019.42 1019.30
1025.94 1025.54 1025.29 1025.17 1025.11 1024.98 1024.82 1024.66 1024.47 1023.93 1023.79 1023.53 1023.22 1022.95 1022.74 1022.45 1022.34 1022.10 1021.95 1021.64 1021.56 1021.32 1021.06 1020.71 1020.41 1020.21 1019.89 1019.75 1019.54 1019.41 1019.55 1019.34 1019.44 1019.32 1019.14 1019.29 1019.18 1019.24 1019.33 1019.51 1019.64 1019.68 1019.64
1026.60 1026.32 1025.99 1025.64 1025.55 1025.50 1025.43 1025.18 1024.95 1024.54 1024.35 1024.06 1023.72 1023.52 1023.21 1023.00 1022.88 1022.73 1022.45 1022.30 1022.18 1021.81 1021.49 1021.14 1020.83 1020.53 1020.21 1019.97 1019.74 1019.38 1019.19 1019.12 1019.03 1019.14 1019.19 1019.10 1019.11 1019.09 1019.23 1019.54 1019.72 1019.74 1019.81
1027.14 1027.03 1026.65 1026.35 1026.20 1025.92 1026.07 1025.87 1025.54 1025.24 1024.90 1024.74 1024.39 1024.25 1023.89 1023.57 1023.42 1023.37 1023.20 1022.99 1022.72 1022.45 1022.03 1021.64 1021.35 1021.02 1020.63 1020.33 1019.91 1019.61 1019.33 1019.16 1018.95 1018.73 1018.72 1018.89 1018.94 1018.97 1019.12 1019.40 1019.66 1019.93 1019.99
1027.71 1027.54 1027.40 1026.96 1026.85 1026.55 1026.44 1026.48 1026.17 1026.14 1025.61 1025.50 1025.22 1024.87 1024.66 1024.44 1024.24 1024.07 1023.87 1023.58 1023.18 1023.02 1022.56 1022.13 1021.84 1021.45 1021.01 1020.68 1020.33 1019.89 1019.67 1019.37 1019.01 1018.69 1018.46 1018.49 1018.57 1019.02 1018.96 1019.32 1019.59 1019.75 1019.87
1028.07 1027.87 1027.78 1027.57 1027.22 1027.12 1027.00 1026.82 1026.70 1026.65 1026.27 1026.16 1025.79 1025.49 1025.25 1024.99 1024.87 1024.78 1024.57 1024.29 1023.94 1023.68 1023.26 1022.82 1022.42 1022.17 1021.82 1021.34 1020.86 1020.39 1019.95 1019.55 1019.28 1018.92 1018.63 1018.41 1018.76 1018.75 1018.90 1019.22 1019.35 1019.54 1019.67
1028.49 1028.27 1028.06 1027.89 1027.64 1027.62 1027.28 1027.29 1027.21 1026.91 1026.80 1026.71 1026.33 1025.99 1025.85 1025.77 1025.61 1025.49 1025.34 1025.16 1024.78 1024.52 1024.18 1023.73 1023.29 1022.85 1022.35 1021.88 1021.41 1020.94 1020.47 1019.96 1019.46 1019.20 1019.01 1018.71 1018.67 1018.73 1018.83 1018.76 1018.89 1019.14 1019.34
1028.69 1028.57 1028.50 1028.21 1028.06 1027.90 1027.66 1027.67 1027.50 1027.29 1027.37 1027.24 1026.85 1026.62 1026.34 1026.30 1026.25 1026.01 1025.95 1025.77 1025.51 1025.08 1024.81 1024.41 1024.01 1023.61 1023.03 1022.34 1021.77 1021.43 1020.91 1020.37 1019.89 1019.60 1019.20 1019.08 1018.89 1018.73 1018.75 1018.56 1018.46 1018.58 1018.80
1028.71 1028.53 1028.44 1028.27 1028.17 1028.03 1028.13 1027.99 1027.92 1027.73 1027.57 1027.35 1027.18 1027.03 1026.82 1026.80 1026.70 1026.58 1026.38 1026.15 1025.85 1025.61 1025.23 1024.93 1024.63 1024.18 1023.66 1023.00 1022.24 1021.69 1021.31 1020.85 1020.37 1019.89 1019.54 1019.32 1019.16 1019.21 1019.03 1018.89 1018.55 1018.20 1018.33
1028.53 1028.43 1028.26 1028.14 1028.26 1028.28 1028.19 1028.06 1028.02 1027.87 1027.73 1027.67 1027.40 1027.08 1026.92 1026.87 1026.91 1026.82 1026.76 1026.59 1026.40 1025.93 1025.57 1025.14 1024.76 1024.36 1023.86 1023.31 1022.79 1022.03 1021.53 1021.18 1020.80 1020.46 1020.18 1019.94 1019.55 1019.20 1019.12 1019.00 1018.66 1018.28 1018.07
1028.59 1028.48 1028.26 1028.09 1028.13 1028.26 1028.27 1028.33 1028.29 1028.25 1028.14 1028.05 1027.79 1027.57 1027.25 1027.02 1026.94 1027.06 1027.08 1026.97 1026.62 1026.18 1025.75 1025.49 1025.27 1024.99 1024.62 1024.17 1023.57 1022.91 1022.38 1021.71 1021.45 1021.23 1020.93 1020.65 1020.34 1019.92 1019.62 1019.28 1018.91 1018.51 1018.36
1028.65 1028.68 1028.63 1028.41 1028.27 1028.28 1028.41 1028.58 1028.58 1028.47 1028.48 1028.39 1028.12 1027.87 1027.55 1027.28 1027.14 1027.12 1027.13 1027.03 1026.67 1026.48 1026.29 1026.14 1025.82 1025.69 1025.39 1024.68 1024.07 1023.67 1023.23 1022.72 1022.32 1021.93 1021.73 1021.53 1021.16 1020.71 1020.44 1019.76 1019.42 1019.02 1018.71
1028.67 1028.75 1028.68 1028.53 1028.31 1028.48 1028.76 1028.89 1028.95 1028.87 1028.73 1028.67 1028.47 1028.12 1027.83 1027.74 1027.50 1027.32 1027.24 1027.05 1026.83 1026.70 1026.62 1026.44 1026.37 1025.93 1025.81 1025.37 1024.51 1024.08 1023.68 1023.23 1022.70 1022.76 1022.47 1022.02 1021.77 1021.43 1021.02 1020.67 1020.40 1019.60 1019.31
1028.74 1028.66 1028.57 1028.50 1028.46 1028.44 1028.81 1029.09 1029.10 1029.08 1028.97 1028.66 1028.51 1028.32 1028.16 1027.93 1027.81 1027.70 1027.44 1027.29 1027.23 1027.14 1027.11 1026.78 1026.60 1026.51 1026.05 1025.55 1025.02 1024.21 1023.75 1023.35 1023.21 1023.33 1022.95 1022.70 1022.52 1022.10 1021.64 1021.13 1020.66 1019.94 1019.79
1028.60 1028.61 1028.67 1028.57 1028.40 1028.28 1028.38 1028.65 1028.75 1028.91 1028.85 1028.77 1028.52 1028.42 1028.21 1028.08 1027.93 1027.83 1027.97 1027.98 1027.85 1027.58 1027.34 1027.15 1027.05 1026.98 1026.72 1026.36 1026.28 1026.03 1025.41 1024.22 1023.53 1023.74 1023.64 1023.32 1023.10 1022.79 1022.22 1021.60 1021.13 1020.59 1020.34
1028.53 1028.48 1028.39 1028.39 1028.34 1028.20 1028.23 1028.49 1028.66 1028.68 1028.65 1028.70 1028.88 1028.72 1028.62 1028.24 1028.23 1028.32 1028.32 1028.19 1028.04 1027.99 1028.02 1027.80 1027.57 1027.30 1027.21 1026.78 1026.57 1026.56 1026.46 1026.30 1025.35 1024.17 1023.88 1023.65 1023.37 1023.13 1022.81 1022.15 1021.67 1021.20 1020.77
1028.11 1028.06 1028.09 1028.13 1028.17 1028.04 1028.09 1028.32 1028.59 1028.98 1029.25 1029.41 1029.45 1029.39 1029.08 1028.75 1028.70 1028.70 1028.70 1028.60 1028.54 1028.32 1028.09 1028.00 1027.52 1027.56 1027.44 1027.22 1026.85 1026.53 1026.42 1026.40 1026.30 1025.36 1024.36 1023.87 1023.54 1023.29 1023.07 1022.58 1022.01 1021.59 1021.06
1027.58 1027.77 1027.85 1027.89 1027.92 1027.77 1027.95 1028.28 1028.64 1029.21 1029.53 1029.68 1029.65 1029.53 1029.52 1029.50 1029.38 1029.33 1029.25 1029.10 1029.00 1028.81 1028.63 1028.35 1027.90 1027.79 1027.69 1027.59 1027.46 1027.00 1026.66 1026.36 1026.13 1026.03 1024.86 1024.09 1023.73 1023.24 1022.91 1022.63 1022.25 1021.76 1021.30
1027.43 1027.54 1027.68 1027.82 1027.84 1028.12 1028.32 1028.51 1028.81 1029.29 1029.74 1029.85 1030.06 1030.14 1030.15 1030.10 1030.12 1029.90 1029.75 1029.75 1029.56 1029.37 1029.07 1028.88 1028.57 1028.23 1028.17 1028.02 1027.82 1027.52 1027.29 1026.94 1026.47 1026.07 1025.25 1024.50 1024.05 1023.26 1022.80 1022.48 1022.25 1021.84 1021.44
Wind_Speed
5 7 12 11 12 12 13 13 13 14 15 15 14 14 14 14 14 14 13 13 12 14 13 13 14 14 14 14 14 13 13 12 13 11 12 13 13 13 13 14 13 10 14
3 6 12 13 13 13 14 14 14 14 15 15 14 13 12 12 12 12 12 13 13 14 12 11 12 12 12 11 11 10 8 7 8 9 9 10 11 11 12 12 12 9 12
3 5 6 9 11 12 13 13 13 13 14 13 13 12 11 11 11 10 11 11 12 14 13 11 11 11 10 9 9 8 6 6 5 3 6 4 4 10 11 10 10 10 10
3 3 4 8 9 11 12 12 13 14 14 14 13 13 12 11 10 10 10 10 12 13 13 11 10 9 8 8 8 7 7 7 5 4 4 3 4 7 11 10 9 8 9
4 5 5 8 9 10 12 12 13 13 14 14 14 13 11 11 11 12 13 13 13 14 13 12 11 9 7 7 8 9 11 10 2 4 5 4 3 5 10 11 10 8 8
6 4 4 5 7 10 12 13 13 15 15 14 14 15 10 10 12 13 13 13 13 13 14 14 14 14 11 11 10 9 10 11 9 5 5 5 3 5 8 9 10 9 9
4 3 3 7 7 11 15 16 16 16 16 16 15 15 12 8 10 10 9 12 12 12 13 13 13 11 11 11 9 10 11 10 4 3 3 3 4 7 6 7 9 11 9
6 6 6 8 11 12 15 16 16 17 17 18 18 18 18 13 13 14 14 15 14 11 9 10 10 9 11 10 10 7 7 8 6 2 4 3 5 8 8 7 7 8 9
7 7 7 7 9 14 14 15 17 19 20 19 19 19 18 15 15 17 15 15 15 13 13 12 12 11 11 12 11 10 3 3 4 3 4 3 8 9 8 8 8 7 7
8 8 8 7 7 7 7 16 18 19 20 20 21 20 17 17 16 18 19 21 20 19 18 16 15 14 12 11 10 10 10 2 2 3 4 4 10 11 9 8 8 8 7
7 7 7 7 7 7 7 11 14 19 20 19 16 19 14 9 11 13 19 21 22 21 20 20 19 17 14 11 11 11 7 3 3 2 2 8 11 13 11 9 8 7 6
5 6 6 7 7 6 6 6 7 8 7 8 8 8 7 8 10 12 15 21 21 21 20 21 20 18 13 7 6 10 5 5 4 4 3 10 13 12 11 9 9 8 8
2 4 7 5 6 7 5 4 3 3 4 5 9 7 6 7 6 6 6 7 8 15 8 11 10 8 10 7 8 7 7 6 4 4 5 2 7 11 7 10 10 10 10
5 4 5 6 6 6 4 4 4 4 4 4 5 7 6 5 6 5 5 6 7 6 8 8 6 9 9 10 9 9 8 6 4 4 4 3 3 5 10 11 11 12 11
5 4 5 5 5 4 6 4 4 5 4 4 5 7 5 5 6 5 5 5 5 5 6 7 7 7 9 10 8 8 8 7 7 4 3 6 4 6 9 12 9 13 13
4 3 2 4 4 5 4 4 3 4 4 4 5 5 7 5 5 5 5 5 6 5 5 5 5 6 6 7 9 9 8 7 6 6 4 4 6 9 10 12 10 5 8
3 2 1 2 3 5 4 3 3 3 4 4 4 5 6 5 6 5 4 5 4 5 6 6 7 6 7 8 9 9 7 6 7 8 7 5 5 8 11 11 14 11 5
4 3 1 2 2 3 4 3 3 3 3 3 4 4 6 6 6 5 4 4 5 4 6 5 6 6 8 7 7 7 7 9 10 11 9 7 7 7 10 15 13 13 9
5 3 1 2 3 4 4 3 2 3 3 3 3 3 5 5 5 5 4 3 4 4 6 4 4 3 8 9 7 5 5 6 8 8 11 11 11 10 9 15 20 13 11
5 3 2 2 3 5 4 3 2 2 2 3 3 3 3 4 5 4 4 5 4 4 5 4 4 4 2 6 6 5 3 4 7 7 8 9 10 10 10 11 8 5 12
4 5 4 4 2 2 2 2 1 0 1 1 2 5 5 3 4 5 3 4 5 5 4 4 3 5 4 7 5 5 3 3 11 5 7 7 11 10 9 10 8 7 5
7 6 4 3 3 2 2 2 2 2 2 2 2 4 5 4 4 4 5 6 6 5 6 5 5 4 3 5 4 1 5 6 7 4 5 6 9 6 10 11 11 10 6
8 8 7 6 6 3 5 3 2 2 1 2 3 3 5 6 6 6 6 5 5 4 4 5 5 4 3 3 4 2 4 3 6 4 5 5 7 5 6 9 10 10 6
9 8 7 7 7 5 5 3 3 2 2 1 2 2 5 10 11 10 8 8 8 6 9 6 6 3 3 4 3 1 2 3 3 6 3 4 5 6 6 5 6 6 6
8 8 8 8 7 5 4 4 4 3 1 2 3 6 7 7 10 10 9 9 9 7 8 8 9 9 5 3 3 3 2 2 4 4 8 7 3 4 4 3 5 5 6
7 7 7 8 7 4 5 4 5 7 5 5 5 5 4 4 5 8 7 6 6 6 7 6 6 7 7 7 6 6 4 4 6 5 4 7 8 5 3 4 4 4 5
Wind_Direction
356 329 355 41 43 43 40 45 41 44 45 47 56 56 58 62 58 54 52 50 48 49 50 58 64 68 71 72 69 63 63 53 37 50 71 77 79 77 72 72 71 73 75
2 331 4 37 43 44 44 42 43 44 45 43 44 56 61 62 58 54 50 47 41 42 50 57 64 66 68 67 67 64 51 38 51 63 64 78 88 87 82 78 77 73 72
29 348 356 35 45 47 44 39 45 47 48 46 44 44 49 54 51 48 45 40 38 37 48 66 69 64 60 58 54 49 28 3 10 67 105 95 92 103 101 93 88 86 83
76 11 16 39 41 46 48 44 40 40 39 33 33 35 35 36 37 35 35 28 30 34 40 48 59 65 59 50 39 24 3 336 315 216 158 120 99 116 116 112 104 99 96
60 23 19 41 50 50 48 44 44 44 41 34 27 25 23 30 30 27 24 19 18 17 22 27 32 35 33 39 35 11 349 346 345 152 137 136 119 123 127 119 106 113 111
69 31 9 35 45 58 56 50 47 47 42 38 37 33 37 38 36 31 22 18 16 16 15 10 4 1 360 7 19 10 6 30 48 84 121 148 144 161 139 131 123 117 110
91 51 15 33 30 53 58 52 46 43 37 35 34 35 45 63 51 38 29 24 17 18 17 10 357 352 352 353 14 10 4 8 47 94 145 157 179 173 165 154 144 138 133
54 19 12 20 39 33 55 50 41 41 33 32 31 30 35 45 37 35 40 37 31 29 25 5 349 346 343 346 353 18 354 350 342 265 196 189 212 187 180 171 159 149 146
34 30 21 21 36 38 63 46 40 40 34 32 26 23 22 31 33 32 26 31 21 21 17 10 15 4 353 347 347 344 350 265 294 296 230 197 214 203 194 187 182 174 165
27 24 17 33 46 44 39 47 45 42 37 33 31 29 26 27 23 26 26 22 15 15 11 9 7 5 360 4 352 348 1 72 223 290 264 210 212 208 201 203 204 193 188
33 22 18 29 37 53 45 49 44 43 39 31 29 30 28 27 26 29 29 28 25 19 14 11 9 5 359 354 345 355 28 359 315 273 211 216 213 210 205 206 208 212 207
26 13 20 32 35 47 59 34 41 31 32 26 25 26 27 31 37 34 29 28 26 19 13 9 8 8 5 357 352 354 354 350 330 297 255 215 211 216 209 205 209 216 213
34 36 22 33 46 54 56 48 37 26 29 16 24 23 23 34 29 30 28 19 18 13 11 5 2 6 357 359 359 354 350 353 347 340 9 231 225 226 214 209 212 219 219
52 32 22 28 60 56 68 54 41 41 32 30 22 27 34 31 28 24 30 13 21 6 6 4 3 356 357 352 350 350 345 343 334 336 342 57 125 248 276 221 213 224 222
67 36 20 34 54 66 76 68 51 50 41 27 28 26 34 40 40 27 24 19 13 359 12 6 2 358 354 348 345 347 337 335 335 332 342 355 303 267 277 278 258 229 221
97 62 345 52 50 64 60 69 61 55 49 47 41 36 38 42 40 32 25 21 18 3 357 1 357 350 343 341 341 345 337 334 336 336 347 350 358 336 331 320 302 280 292
177 219 336 86 53 81 90 87 66 51 59 50 47 53 60 56 57 46 34 21 7 356 4 9 10 5 3 352 348 356 359 355 19 23 21 17 7 15 22 8 5 327 323
168 184 56 32 48 114 124 110 74 47 47 40 41 38 49 55 59 55 42 24 1 9 23 17 14 9 5 358 343 355 1 25 25 23 19 18 17 17 9 7 5 9 356
176 155 62 32 73 111 105 96 77 50 41 14 29 33 33 53 61 72 57 31 22 27 22 11 2 13 9 357 345 358 355 19 28 26 26 22 17 14 13 4 356 9 23
188 183 139 93 97 100 97 87 40 12 5 357 357 8 32 17 29 57 43 37 31 35 23 12 13 355 356 343 333 339 336 6 31 22 17 20 14 8 7 3 358 333 21
198 181 183 123 110 135 123 133 87 271 315 302 319 331 344 2 11 12 25 23 16 36 15 17 351 359 345 350 346 343 337 328 31 13 11 16 11 5 5 3 360 351 360
188 187 160 144 130 107 124 151 153 177 228 265 313 322 318 331 341 346 3 3 5 360 3 10 28 347 344 3 19 328 354 333 356 359 3 1 4 351 358 359 360 355 14
189 187 176 172 161 146 135 119 82 40 7 12 19 346 350 347 354 6 3 360 356 3 347 343 347 11 341 327 23 93 355 319 331 333 349 349 348 345 345 345 358 0 5
203 185 177 182 174 178 157 127 135 140 69 343 23 349 40 43 40 37 31 26 24 17 18 353 345 321 336 321 324 257 226 202 272 319 311 313 328 331 333 332 341 349 348
181 184 190 189 193 185 163 105 92 79 87 52 47 46 38 41 41 34 31 28 27 25 18 15 13 9 357 316 326 323 301 267 249 239 306 316 297 294 297 311 316 330 341
185 185 190 190 205 144 110 110 108 105 92 75 50 48 33 34 31 29 31 30 31 26 17 2 3 18 15 29 15 9 343 328 332 312 294 304 295 295 287 299 295 304 312